Location: Lugano
(46.0000°N, 8.9670°E)
Time: 06:52:39
(UTC+02:00)

LilacSat-2 - Visible Passes

Search period start: 16 May 2026 00:00
Search period end: 26 May 2026 00:00
Orbit: 411 x 421 km, 97.5° (Epoch: 15 May)

Date Brightness Start Highest point End Pass type
(mag) Time Alt. Az. Time Alt. Az. Time Alt. Az.
17 May ? 21:48:45 10° WSW 21:50:07 12° W 21:51:30 10° WNW visible
19 May ? 21:50:01 10° WSW 21:51:19 12° W 21:52:38 10° WNW visible
21 May ? 21:51:12 10° WSW 21:52:25 12° W 21:53:40 10° WNW visible
23 May ? 21:52:18 10° WSW 21:53:28 12° W 21:54:39 10° WNW visible
25 May ? 21:53:20 10° WSW 21:54:27 11° W 21:55:33 10° WNW visible
